Regional Weather Roundup
Issued by NWS

Home | Current Version | Previous Version | Graphics & Text | Print | Product List | Glossary On
Versions: 1 2 3 4 5 6 7 8 9 10 11 12 13 14 15 16 17 18 19 20 21 22 23 24 25 26 27 28 29 30 31 32 33 34 35 36 37 38 39 40 41 42 43 44 45 46 47 48 49 50
000
ASUS45 KBOU 272210
RWRCO

WEATHER ROUNDUP FOR COLORADO
NATIONAL WEATHER SERVICE DENVER/BOULDER CO
400 PM MDT TUE SEP 27 2016

NOTE: "FAIR" INDICATES FEW OR NO CLOUDS BELOW 12000 FEET WITH NO
SIGNIFICANT WEATHER AND/OR OBSTRUCTIONS TO VISIBILITY.

COZ001>005-013-030-031-272300-
...NORTHWEST COLORADO...

CITY           SKY/WX    TMP DP  RH WIND       PRES   REMARKS
CRAIG          FAIR      77  28  16 W9        30.23F
HAYDEN         FAIR      75  28  17 W9        30.24F
MEEKER         FAIR      76  29  17 W6        30.23F
MOUNT WERNER   NOT AVBL
STEAMBOAT SPGS FAIR      74  30  20 W6        30.25F
WALDEN           N/A     70  19  14 S6        30.33F
$$

COZ006>008-011-272300-
...WEST CENTRAL VALLEYS...

CITY           SKY/WX    TMP DP  RH WIND       PRES   REMARKS
GRAND JUNCTION FAIR      79  35  20 W8        30.14F
MONTROSE       FAIR      76  34  21 NW13      30.19F
EAGLE          SUNNY     79  19  11 SW8       30.22F
RIFLE          FAIR      80  36  20 W9        30.15F
DELTA          NOT AVBL
NUCLA          FAIR      77  32  19 NW5       30.23F
$$

COZ017>023-064>068-272300-
...SOUTHWEST COLORADO...

CITY           SKY/WX    TMP DP  RH WIND       PRES   REMARKS
DURANGO        FAIR      74  26  16 VRB3      30.25F
CORTEZ         FAIR      75  34  22 VRB3      30.22F
PAGOSA SPRINGS FAIR      72  22  15 SW7       30.31F
TELLURIDE      PTSUNNY   66  33  29 NW7G18    30.40F
WOLF CREEK PAS FAIR      52  32  46 SW10G20   30.60F
$$

COZ009-010-012-014-032>034-037-058>063-272300-
...CENTRAL COLORADO...

CITY           SKY/WX    TMP DP  RH WIND       PRES   REMARKS
ASPEN          FAIR      74  26  16 NW9G17    30.28F
BUENA VISTA    FAIR      76  19  12 S10       30.27F
COPPER MTN     FAIR      61  19  20 NW5       30.59F
BERTHOUD PASS  FAIR      48  34  57 N10G22    30.63S
COTTONWOOD PAS FAIR      70  18  13 SE9G18    30.42S
GUNNISON       FAIR      73  28  19 SW8       30.28F
KREMMLING      FAIR      79   7   6 S5        30.27F
LEADVILLE      FAIR      67  18  15 NW13      30.40F
SALIDA         FAIR      79  23  12 SW10      30.32F
SUNLIGHT       FAIR      59  28  31 W5        30.55S
WILKERSON PASS FAIR      59  14  17 S5        30.57S
$$

COZ069>075-272300-
...SAN LUIS VALLEY/SANGRE DE CRISTO MOUNTAINS...

CITY           SKY/WX    TMP DP  RH WIND       PRES   REMARKS
ALAMOSA        FAIR      72  26  18 VRB3      30.28F
LA VETA PASS   FAIR      63  27  25 MISG      30.47S
SAGUACHE       NOT AVBL
$$

COZ035-036-038>040-272300-
...NORTHERN COLORADO FRONT RANGE...

CITY           SKY/WX    TMP DP  RH WIND       PRES   REMARKS
DENVER INTL AP FAIR      82  24  12 NE6       30.14F
DMNS CITY PARK   N/A     80  27  14 NW9       30.13F
AURORA         MOSUNNY   81  22  11 NE2       30.16F
FRONT RANGE AP MOSUNNY   82  23  11 N7        30.16S
ERIE MUNI ARPT FAIR      81  23  12 CALM      30.13S
BOULDER MUN AP FAIR      81  30  16 S3        30.14S
CENTENNIAL     FAIR      80  27  14 VRB5      30.17F
BROOMFIELD     MOSUNNY   81  28  15 NE6       30.17F
FORT COLLINS   FAIR      81  32  17 SW6       30.09F
LONGMONT       FAIR      83  29  14 N3        30.14F
$$

COZ041-046-047-076>085-087-088-272300-
...PIKES PEAK/PALMER DIVIDE AND SOUTHERN FOOTHILLS...

CITY           SKY/WX    TMP DP  RH WIND       PRES   REMARKS
COLO. SPRINGS  FAIR      77  27  15 CALM      30.20F
A. F. ACADEMY  FAIR      78  28  16 VRB2      30.20F
SCHRIEVER AFB  NOT AVBL
ELLICOTT       NOT AVBL
FALCON         FAIR      77  26  15 CALM      30.25F
FORT CARSON    FAIR      79  28  15 E5        30.17S
LIMON          FAIR      81  23  11 VRB3      30.13F
MONUMENT HILL  FAIR      73  23  15 NE5       30.26F
TRINIDAD       FAIR      82  29  14 E13       30.16F
$$

COZ042>045-048>051-090-091-272300-
...NORTHEAST COLORADO...

CITY           SKY/WX    TMP DP  RH WIND       PRES   REMARKS
GREELEY ARPT   FAIR      81  36  19 E5        30.11F
AKRON          FAIR      82  23  11 NE6       30.10F
BURLINGTON     FAIR      84  30  14 NW6       30.08F
WRAY           FAIR      88  28  11 SW5       30.04S
STERLING       FAIR      86  34  15 S7        30.04F
HOLYOKE        FAIR      88  30  12 NW6       30.04F
FORT MORGAN    FAIR      84  27  12 SE5       30.10F
$$

COZ086-089-092>099-272300-
...SOUTHEAST COLORADO...

CITY           SKY/WX    TMP DP  RH WIND       PRES   REMARKS
PUEBLO         FAIR      87  29  12 N5        30.08
LA JUNTA       FAIR      86  33  15 S8        30.07F
LAMAR          FAIR      88  33  14 VRB5      30.04F
SPRINGFIELD    NOT AVBL
$$



USA.gov is the U.S. government's official web portal to all federal, state and local government web resources and services.